LKKB Weather Reports


time (UTC)temp
F
wind
direction
speed
knots
gust
knots
rain 1hr
in
rain 24hr
in
rain mn
in
humidity
%
barometer
mb
20260509110103 57 20 2.6 0.0 0.00 0.00 0.00 58 1020.0
20260509103103 57 10 4.3 0.0 0.00 0.00 0.00 58 1020.0
20260509102051 57 60 6.1 0.0 0.00 0.00 0.00 58
20260509093103 57 50 4.3 0.0 0.00 0.00 0.00 58 1020.0
20260509091853 57 50 4.3 0.0 0.00 0.00 0.00 58
20260509090210 57 40 4.3 0.0 0.00 0.00 0.00 54 1020.0
20260509083102 55 0 2.6 0.0 0.00 0.00 0.00 66 1020.0
20260509081853 55 30 1.7 0.0 0.00 0.00 0.00 66
20260509080211 55 0 1.7 0.0 0.00 0.00 0.00 71 1020.0
20260509073103 54 20 5.2 0.0 0.00 0.00 0.00 76 1020.0
20260509071950 54 40 6.1 0.0 0.00 0.00 0.00 76
20260509070210 52 50 6.1 0.0 0.00 0.00 0.00 81 1020.0
20260509063102 52 30 4.3 0.0 0.00 0.00 0.00 81 1020.0
20260509061853 50 40 1.7 0.0 0.00 0.00 0.00 87
20260509060213 50 40 2.6 0.0 0.00 0.00 0.00 81 1020.0
20260509053103 48 360 2.6 0.0 0.00 0.00 0.00 87 1020.0
20260509051851 48 360 1.7 0.0 0.00 0.00 0.00 87
20260509050210 50 0 0.9 0.0 0.00 0.00 0.00 87 1020.0
20260509043103 45 320 0.9 0.0 0.00 0.00 0.00 93 1019.0
20260509042055 45 340 1.7 0.0 0.00 0.00 0.00 93
20260509040203 45 340 0.9 0.0 0.00 0.00 0.00 93 1019.0
20260509033102 45 350 1.7 0.0 0.00 0.00 0.00 100 1019.0
20260509031851 46 350 1.7 0.0 0.00 0.00 0.00 87
20260509023103 45 10 1.7 0.0 0.00 0.00 0.00 100 1019.0
20260509021851 46 10 1.7 0.0 0.00 0.00 0.00 87
20260509013102 45 10 2.6 0.0 0.00 0.00 0.00 100 1020.0
20260509011952 46 30 1.7 0.0 0.00 0.00 0.00 87
20260509003103 48 360 1.7 0.0 0.00 0.00 0.00 87 1019.0
20260509001852 48 350 4.3 0.0 0.00 0.00 0.00 81
20260509000211 48 350 2.6 0.0 0.00 0.00 0.00 87 1020.0
20260508233103 48 320 2.6 0.0 0.00 0.00 0.00 87 1020.0
20260508231851 48 350 1.7 0.0 0.00 0.00 0.00 81
20260508223103 50 330 2.6 0.0 0.00 0.00 0.00 81 1020.0
20260508222051 48 350 4.3 0.0 0.00 0.00 0.00 81
20260508220103 50 340 2.6 0.0 0.00 0.00 0.00 81 1020.0
20260508213103 50 340 2.6 0.0 0.00 0.00 0.00 81 1020.0
20260508211852 48 340 4.3 0.0 0.00 0.00 0.00 81
20260508210209 48 330 4.3 0.0 0.00 0.00 0.00 87 1020.0
20260508203103 48 330 4.3 0.0 0.00 0.00 0.00 87 1019.0
20260508201854 50 340 4.3 0.0 0.00 0.00 0.00 76
20260508200103 50 350 4.3 0.0 0.00 0.00 0.00 81 1019.0
20260508193103 50 350 4.3 0.0 0.00 0.00 0.00 81 1019.0
20260508191952 50 350 4.3 0.0 0.00 0.00 0.00 76
20260508190211 50 350 2.6 0.0 0.00 0.00 0.00 81 1019.0
20260508183102 52 350 5.2 0.0 0.00 0.00 0.00 76 1018.0
20260508181851 54 350 6.1 0.0 0.00 0.00 0.00 66
20260508180302 54 350 5.2 0.0 0.00 0.00 0.00 71 1018.0
20260508173102 55 360 5.2 0.0 0.00 0.00 0.00 66 1018.0
20260508171850 55 360 4.3 0.0 0.00 0.00 0.00 66
20260508163103 57 10 4.3 0.0 0.00 0.00 0.00 62 1018.0
20260508162052 57 350 6.1 0.0 0.00 0.00 0.00 62
20260508160212 57 360 6.1 0.0 0.00 0.00 0.00 67 1018.0
20260508153103 57 360 6.1 0.0 0.00 0.00 0.00 62 1018.0
20260508151855 57 340 6.1 0.0 0.00 0.00 0.00 58
20260508150211 59 360 6.1 0.0 0.00 0.00 0.00 54 1018.0
20260508143102 57 360 5.2 0.0 0.00 0.00 0.00 58 1018.0
20260508141853 57 330 4.3 0.0 0.00 0.00 0.00 58
20260508140212 57 330 4.3 0.0 0.00 0.00 0.00 58 1018.0
20260508133103 57 10 4.3 0.0 0.00 0.00 0.00 62 1018.0
20260508131951 57 350 6.1 0.0 0.00 0.00 0.00 62
20260508130210 57 10 5.2 0.0 0.00 0.00 0.00 62 1018.0
20260508123103 55 30 5.2 0.0 0.00 0.00 0.00 66 1018.0
20260508121851 55 360 6.1 0.0 0.00 0.00 0.00 62
20260508120211 55 360 7.0 0.0 0.00 0.00 0.00 66 1018.0
20260508113103 55 360 5.2 0.0 0.00 0.00 0.00 66 1018.0
20260508111853 54 360 4.3 0.0 0.00 0.00 0.00 66